Simultaneous Nadir Overpasses (SNOs) Predictions

Prediction of SNOs between LANDSAT-8 and METOP-B Satellite Orbit:

Table of predicted SNOs for the next 14.0 days since TLE Epoch: 4/9/2022
Index Date (LANDSAT-8) Time (LANDSAT-8) Lat,Lon (LANDSAT-8) SZA (LANDSAT-8 ) Date (METOP-B) Time (METOP-B) Lat,Lon (METOP-B) SZA (METOP-B ) Distance(km) Time Diff (sec)
1 04/11/2022 18:20:12 81.09, -56.10 74.55 04/11/2022 18:19:44 81.10, -55.99 74.55 1.92 28
2 04/11/2022 19:09:38 -81.12, 111.88 105.41 04/11/2022 19:10:23 -81.12, 112.01 105.38 2.42 45
3 04/14/2022 13:54:28 81.10, 10.41 73.57 04/14/2022 13:54:06 81.10, 10.54 73.57 2.24 22
4 04/14/2022 14:43:54 -81.12, 178.41 106.40 04/14/2022 14:44:45 -81.13, 178.56 106.36 2.45 51
5 04/17/2022 09:28:43 81.10, 76.81 72.58 04/17/2022 09:28:28 81.09, 76.65 72.56 2.76 15
6 04/17/2022 10:18:09 -81.12,-115.17 107.38 04/17/2022 10:19:07 -81.12,-115.32 107.37 2.79 58
7 04/20/2022 05:02:59 81.09, 143.08 71.60 04/20/2022 05:02:50 81.09, 143.09 71.60 0.50 9
8 04/20/2022 05:52:25 -81.11, -48.88 108.35 04/20/2022 05:53:29 -81.12, -48.88 108.33 0.24 64
9 04/23/2022 00:37:14 81.09,-150.41 70.68 04/23/2022 00:37:12 81.09,-150.52 70.67 1.98 2



Historial Predications of SNOs between LANDSAT-8 and METOP-B
